Weather History for KCOM - January, 2014

Change the Weather History Date:

Sunday, January 5, 2014

  Actual Average (KABI) Record (KABI)
Temperature  
Mean Temperature 34 °F 44 °F  
Max Temperature 44 °F 56 °F 85 °F (1927)
Min Temperature 24 °F 33 °F 3 °F (1947)
Degree Days  
Heating Degree Days 31 21  
Month to date heating degree days 105  
Since 1 July heating degree days 1150  
Cooling Degree Days 0 0  
Month to date cooling degree days 0  
Year to date cooling degree days 0  
Moisture  
Dew Point 17 °F    
Average Humidity 54    
Maximum Humidity 76    
Minimum Humidity 35    
Precipitation  
Precipitation 0.00 in 0.03 in 1.04 in (1960)
Month to date precipitation 0.15  
Year to date precipitation 0.15  
Sea Level Pressure  
Sea Level Pressure 30.19 in    
Wind  
Wind Speed 18 mph (North)    
Max Wind Speed 28 mph    
Max Gust Speed 34 mph    
Visibility 10 miles    
Events      
T = Trace of Precipitation, MM = Missing Value Source: NWS Daily Summary

Daily Weather History Graph

Daily Weather History Graph

Search for Another Location

Airport or City:

Trip Planner

Search our weather history database for the weather conditions in past years. The results will help you decide how hot, cold, wet, or windy it might be!

Date:

Astronomy

Jan. 05, 2014 Rise Set
Actual Time 7:38 AM CST 5:47 PM CST
Civil Twilight 7:11 AM CST 6:14 PM CST
Nautical Twilight 6:41 AM CST 6:44 PM CST
Astronomical Twilight 6:11 AM CST 7:14 PM CST
Moon 10:39 AM CST (1/5) 10:56 PM CST (1/5)
Length of Visible Light 11h 02m
Length of Day
10h 09m
Waxing Crescent, 25% of the Moon is Illuminated
Jan 5
Waxing Crescent
Jan 7
First Quarter
Jan 15
Full
Jan 23
Last Quarter
Jan 30
New

Hourly Weather History & Observations

Time (CST) Temp. Windchill Dew Point Humidity Pressure Visibility Wind Dir Wind Speed Gust Speed Precip Events Conditions
12:15 AM 44.1 °F 35.9 °F 28.9 °F 55% 29.84 in 10.0 mi North 19.6 mph 23.0 mph N/A   Clear
12:35 AM 42.4 °F 35.0 °F 28.0 °F 57% 29.85 in 10.0 mi North 15.0 mph - N/A   Clear
12:55 AM 40.1 °F 31.0 °F 28.4 °F 63% 29.87 in 10.0 mi North 18.4 mph 24.2 mph N/A   Clear
1:15 AM 37.4 °F 26.4 °F 28.2 °F 69% 29.87 in 10.0 mi North 23.0 mph 27.6 mph N/A   Clear
1:35 AM 36.3 °F 25.2 °F 27.9 °F 71% 29.89 in 10.0 mi North 21.9 mph - N/A   Clear
1:55 AM 34.7 °F 22.5 °F 26.4 °F 72% 29.90 in 10.0 mi North 24.2 mph 31.1 mph N/A   Clear
2:15 AM 33.8 °F 22.5 °F 26.2 °F 74% 29.92 in 10.0 mi North 19.6 mph 32.2 mph N/A   Clear
2:35 AM 33.3 °F 21.2 °F 26.4 °F 76% 29.93 in 10.0 mi North 21.9 mph 31.1 mph N/A   Clear
2:55 AM 32.5 °F 20.2 °F 25.3 °F 75% 29.95 in 10.0 mi North 21.9 mph 29.9 mph N/A   Scattered Clouds
3:15 AM 32.2 °F 19.4 °F 24.4 °F 73% 29.96 in 10.0 mi North 23.0 mph 28.8 mph N/A   Clear
3:35 AM 32.0 °F 19.5 °F 24.3 °F 73% 29.98 in 10.0 mi North 21.9 mph 31.1 mph N/A   Clear
3:55 AM 32.0 °F 18.9 °F 23.9 °F 72% 29.99 in 10.0 mi North 24.2 mph 32.2 mph N/A   Clear
4:15 AM 32.0 °F 20.1 °F 23.9 °F 72% 30.00 in 10.0 mi North 19.6 mph 26.5 mph N/A   Clear
4:35 AM 32.2 °F 20.0 °F 23.7 °F 71% 30.00 in 10.0 mi North 20.7 mph 27.6 mph N/A   Scattered Clouds
4:55 AM 32.2 °F 21.1 °F 23.5 °F 70% 30.01 in 10.0 mi North 17.3 mph 28.8 mph N/A   Clear
5:15 AM 32.2 °F 20.4 °F 23.4 °F 70% 30.02 in 10.0 mi NNW 19.6 mph 28.8 mph N/A   Clear
5:35 AM 32.0 °F 20.1 °F 23.0 °F 69% 30.04 in 10.0 mi NNW 19.6 mph 28.8 mph N/A   Clear
5:55 AM 31.8 °F 20.2 °F 21.6 °F 66% 30.05 in 10.0 mi North 18.4 mph 31.1 mph N/A   Clear
6:15 AM 31.1 °F 16.9 °F 20.7 °F 65% 30.06 in 10.0 mi North 27.6 mph 34.5 mph N/A   Clear
6:35 AM 30.0 °F 16.3 °F 19.4 °F 65% 30.08 in 10.0 mi North 24.2 mph 34.5 mph N/A   Clear
6:55 AM 29.3 °F 15.0 °F 19.0 °F 66% 30.08 in 10.0 mi North 25.3 mph 31.1 mph N/A   Clear
7:15 AM 28.8 °F 15.9 °F 19.2 °F 68% 30.11 in 10.0 mi North 19.6 mph - N/A   Clear
7:35 AM 28.4 °F 16.6 °F 19.2 °F 69% 30.12 in 10.0 mi North 16.1 mph 26.5 mph N/A   Clear
7:55 AM 28.4 °F 16.6 °F 19.4 °F 69% 30.14 in 10.0 mi North 16.1 mph 23.0 mph N/A   Clear
8:15 AM 29.7 °F 17.8 °F 20.7 °F 69% 30.16 in 10.0 mi North 17.3 mph 21.9 mph N/A   Mostly Cloudy
8:35 AM 28.9 °F 15.4 °F 18.0 °F 64% 30.20 in 10.0 mi North 21.9 mph 29.9 mph N/A   Mostly Cloudy
8:55 AM 30.2 °F 17.4 °F 18.1 °F 61% 30.21 in 10.0 mi North 20.7 mph 29.9 mph N/A   Mostly Cloudy
9:15 AM 30.0 °F 17.9 °F 18.5 °F 62% 30.23 in 10.0 mi North 18.4 mph 25.3 mph N/A   Overcast
9:35 AM 29.7 °F 19.1 °F 18.5 °F 63% 30.24 in 10.0 mi North 13.8 mph 24.2 mph N/A   Mostly Cloudy
9:55 AM 32.0 °F 20.8 °F 19.4 °F 60% 30.24 in 10.0 mi North 17.3 mph 24.2 mph N/A   Mostly Cloudy
10:15 AM 31.8 °F 20.6 °F 19.0 °F 59% 30.25 in 10.0 mi North 17.3 mph 23.0 mph N/A   Scattered Clouds
10:35 AM 32.7 °F 21.4 °F 19.0 °F 57% 30.25 in 10.0 mi North 18.4 mph 26.5 mph N/A   Mostly Cloudy
10:55 AM 34.0 °F 22.4 °F 18.5 °F 53% 30.26 in 10.0 mi North 20.7 mph 26.5 mph N/A   Scattered Clouds
11:15 AM 34.9 °F 24.2 °F 17.6 °F 49% 30.26 in 10.0 mi North 18.4 mph 23.0 mph N/A   Clear
11:35 AM 35.6 °F 24.8 °F 17.4 °F 48% 30.26 in 10.0 mi North 19.6 mph - N/A   Clear
11:55 AM 35.6 °F 24.8 °F 16.9 °F 47% 30.26 in 10.0 mi NNW 19.6 mph 27.6 mph N/A   Clear
12:15 PM 35.2 °F 23.5 °F 16.2 °F 46% 30.26 in 10.0 mi North 23.0 mph 26.5 mph N/A   Clear
12:35 PM 35.8 °F 26.1 °F 16.3 °F 45% 30.26 in 10.0 mi NNW 16.1 mph 25.3 mph N/A   Clear
12:55 PM 36.5 °F 27.4 °F 15.8 °F 43% 30.24 in 10.0 mi NNW 15.0 mph 25.3 mph N/A   Clear
1:15 PM 36.7 °F 28.4 °F 15.8 °F 43% 30.24 in 10.0 mi NNW 12.7 mph 21.9 mph N/A   Clear
1:35 PM 37.8 °F 29.0 °F 15.6 °F 41% 30.24 in 10.0 mi NNW 15.0 mph - N/A   Clear
1:55 PM 38.5 °F 30.7 °F 15.8 °F 40% 30.24 in 10.0 mi North 12.7 mph 21.9 mph N/A   Clear
2:15 PM 39.0 °F 29.3 °F 16.0 °F 39% 30.23 in 10.0 mi NNW 19.6 mph 25.3 mph N/A   Clear
2:35 PM 39.4 °F 30.7 °F 15.4 °F 38% 30.24 in 10.0 mi NNW 16.1 mph 23.0 mph N/A   Clear
2:55 PM 39.4 °F 31.4 °F 15.1 °F 37% 30.24 in 10.0 mi NNW 13.8 mph 24.2 mph N/A   Clear
3:15 PM 39.4 °F 30.1 °F 15.1 °F 37% 30.24 in 10.0 mi North 18.4 mph 23.0 mph N/A   Clear
3:35 PM 39.2 °F 32.0 °F 14.7 °F 37% 30.25 in 10.0 mi North 11.5 mph 20.7 mph N/A   Clear
3:55 PM 39.4 °F 30.1 °F 14.4 °F 36% 30.25 in 10.0 mi North 18.4 mph 24.2 mph N/A   Clear
4:15 PM 39.2 °F 30.5 °F 14.2 °F 36% 30.26 in 10.0 mi North 16.1 mph 20.7 mph N/A   Clear
4:35 PM 38.7 °F 29.5 °F 13.8 °F 36% 30.27 in 10.0 mi North 17.3 mph 23.0 mph N/A   Clear
4:55 PM 37.8 °F 28.3 °F 13.3 °F 37% 30.28 in 10.0 mi North 17.3 mph - N/A   Clear
5:15 PM 36.3 °F 28.4 °F 12.4 °F 37% 30.29 in 10.0 mi North 11.5 mph 19.6 mph N/A   Clear
5:35 PM 35.4 °F 26.8 °F 10.0 °F 35% 30.30 in 10.0 mi North 12.7 mph - N/A   Clear
5:55 PM 33.8 °F 24.8 °F 9.0 °F 36% 30.31 in 10.0 mi North 12.7 mph - N/A   Clear
6:15 PM 32.9 °F 24.7 °F 8.2 °F 36% 30.32 in 10.0 mi North 10.4 mph - N/A   Clear
6:35 PM 32.0 °F 24.2 °F 8.8 °F 38% 30.34 in 10.0 mi North 9.2 mph - N/A   Clear
6:55 PM 29.8 °F 23.0 °F 9.5 °F 43% 30.35 in 10.0 mi North 6.9 mph - N/A   Clear
7:15 PM 29.5 °F 22.5 °F 9.3 °F 43% 30.36 in 10.0 mi North 6.9 mph - N/A   Clear
7:35 PM 28.4 °F 22.2 °F 9.3 °F 45% 30.37 in 10.0 mi North 5.8 mph - N/A   Clear
7:55 PM 27.7 °F 21.3 °F 9.5 °F 46% 30.39 in 10.0 mi North 5.8 mph - N/A   Clear
8:15 PM 27.5 °F 19.3 °F 10.0 °F 48% 30.39 in 10.0 mi North 8.1 mph - N/A   Clear
8:35 PM 27.1 °F 19.7 °F 10.4 °F 49% 30.40 in 10.0 mi North 6.9 mph - N/A   Clear
8:55 PM 25.7 °F 18.0 °F 11.1 °F 54% 30.41 in 10.0 mi North 6.9 mph - N/A   Clear
9:15 PM 26.6 °F 16.8 °F 10.4 °F 51% 30.42 in 10.0 mi North 10.4 mph - N/A   Clear
9:35 PM 26.6 °F 16.2 °F 10.0 °F 50% 30.43 in 10.0 mi NNE 11.5 mph - N/A   Clear
9:55 PM 26.2 °F 15.8 °F 8.8 °F 48% 30.44 in 10.0 mi NNE 11.5 mph - N/A   Clear
10:15 PM 25.5 °F 14.9 °F 8.6 °F 49% 30.45 in 10.0 mi NNE 11.5 mph - N/A   Clear
10:35 PM 24.3 °F 13.9 °F 9.0 °F 52% 30.46 in 10.0 mi NNE 10.4 mph - N/A   Clear
10:55 PM 24.8 °F 11.9 °F 7.7 °F 48% 30.46 in 10.0 mi NNE 16.1 mph 21.9 mph N/A   Clear